Location: Haliburton Scout Reserve
(45.0900°N, 78.3200°W)
Time: 08:30:27
(UTC-04:00)

S-56A Canister/Altair - Pass Details

Date: 05 February 2023
Orbit: 639 x 2493 km, 38.9° (Epoch: 27 March)

Event Time Altitude Azimuth Distance (km) Brightness Sun altitude
Rises 11:34:01 0° 244° (WSW) 2,928 10.7 27.9°
Reaches altitude 10° 11:36:18 10° 236° (SW) 2,052 10.1 28.0°
Maximum altitude 11:40:33 38° 167° (SSE) 1,089 10.7 28.1°
Drops below altitude 10° 11:45:47 10° 100° (E) 2,541 10.6 28.3°
Sets 11:48:55 0° 94° (E) 3,735 11.2 28.4°
